Weather History for KSRQ - February, 2015

Change the Weather History Date:

Friday, February 20, 2015

  Actual Average Record
Temperature  
Mean Temperature 47 °F 64 °F  
Max Temperature 60 °F 74 °F 85 °F (1977)
Min Temperature 33 °F 54 °F 32 °F (1916)
Degree Days  
Heating Degree Days 18 3  
Month to date heating degree days 136 74  
Since 1 July heating degree days 442 394  
Cooling Degree Days 0 2  
Month to date cooling degree days 1 36  
Year to date cooling degree days 60 88  
Moisture  
Dew Point 22 °F    
Average Humidity 42    
Maximum Humidity 76    
Minimum Humidity 15    
Precipitation  
Precipitation 0.00 in 0.13 in 1.47 in (1957)
Month to date precipitation 3.80 1.58  
Year to date precipitation 4.87 4.07  
Sea Level Pressure  
Sea Level Pressure 30.35 in    
Wind  
Wind Speed 9 mph (ENE)    
Max Wind Speed 16 mph    
Max Gust Speed 22 mph    
Visibility 10 miles    
Events      
T = Trace of Precipitation, MM = Missing Value Source: NWS Daily Summary

Daily Weather History Graph

Daily Weather History Graph

Search for Another Location

Airport or City:

Trip Planner

Search our weather history database for the weather conditions in past years. The results will help you decide how hot, cold, wet, or windy it might be!

Date:

Astronomy

Feb. 20, 2015 Rise Set
Actual Time 7:03 AM EST 6:25 PM EST
Civil Twilight 6:39 AM EST 6:48 PM EST
Nautical Twilight 6:12 AM EST 7:16 PM EST
Astronomical Twilight 5:45 AM EST 7:43 PM EST
Moon 8:06 AM EST (2/20) 8:33 PM EST (2/20)
Length of Visible Light 12h 09m
Length of Day
11h 22m
Waxing Crescent, 4% of the Moon is Illuminated
Feb 20
Waxing Crescent
Feb 25
First Quarter
Mar 5
Full
Mar 13
Last Quarter
Mar 20
New

Hourly Weather History & Observations

Time (EST) Temp. Windchill Dew Point Humidity Pressure Visibility Wind Dir Wind Speed Gust Speed Precip Events Conditions
12:53 AM 37.9 °F 35.5 °F 30.0 °F 73% 30.32 in 10.0 mi ENE 3.5 mph - N/A   Clear
1:53 AM 37.0 °F 31.6 °F 28.9 °F 73% 30.32 in 10.0 mi ENE 6.9 mph - N/A   Clear
2:53 AM 37.0 °F 32.4 °F 24.1 °F 59% 30.32 in 10.0 mi NE 5.8 mph - N/A   Clear
3:53 AM 36.0 °F 29.6 °F 18.0 °F 48% 30.34 in 10.0 mi NE 8.1 mph - N/A   Clear
4:53 AM 35.1 °F 29.3 °F 17.1 °F 48% 30.35 in 10.0 mi NE 6.9 mph - N/A   Clear
5:53 AM 34.0 °F 27.2 °F 17.1 °F 50% 30.35 in 10.0 mi ENE 8.1 mph - N/A   Clear
6:53 AM 33.1 °F 26.9 °F 19.9 °F 59% 30.35 in 10.0 mi ENE 6.9 mph - N/A   Clear
7:53 AM 36.0 °F 29.6 °F 19.0 °F 50% 30.36 in 10.0 mi ENE 8.1 mph - N/A   Clear
8:53 AM 39.9 °F 32.1 °F 15.1 °F 36% 30.38 in 10.0 mi ENE 13.8 mph 21.9 mph N/A   Clear
9:53 AM 45.0 °F 39.3 °F 15.1 °F 30% 30.40 in 10.0 mi ENE 11.5 mph - N/A   Clear
10:53 AM 48.0 °F - 17.1 °F 29% 30.40 in 10.0 mi NE 10.4 mph - N/A   Clear
11:53 AM 51.1 °F - 18.0 °F 27% 30.39 in 10.0 mi ENE 12.7 mph - N/A   Clear
12:53 PM 55.0 °F - 14.0 °F 20% 30.37 in 10.0 mi ENE 8.1 mph - N/A   Clear
1:53 PM 59.0 °F - 17.1 °F 20% 30.34 in 10.0 mi NNE 8.1 mph - N/A   Clear
2:53 PM 59.0 °F - 12.9 °F 16% 30.32 in 10.0 mi East 11.5 mph - N/A   Clear
3:53 PM 59.0 °F - 15.1 °F 18% 30.30 in 10.0 mi East 10.4 mph - N/A   Clear
4:53 PM 57.9 °F - 19.0 °F 22% 30.30 in 10.0 mi ENE 10.4 mph - N/A   Clear
5:53 PM 57.0 °F - 21.0 °F 25% 30.31 in 10.0 mi ENE 10.4 mph - N/A   Clear
6:53 PM 52.0 °F - 25.0 °F 35% 30.32 in 10.0 mi ENE 6.9 mph - N/A   Clear
7:53 PM 50.0 °F - 27.0 °F 41% 30.33 in 10.0 mi ENE 6.9 mph - N/A   Clear
8:53 PM 48.0 °F - 28.9 °F 48% 30.35 in 10.0 mi ENE 5.8 mph - N/A   Clear
9:53 PM 46.9 °F - 32.0 °F 56% 30.37 in 10.0 mi East 9.2 mph - N/A   Clear
10:53 PM 46.0 °F 41.0 °F 34.0 °F 63% 30.37 in 10.0 mi East 10.4 mph - N/A   Clear
11:53 PM 44.1 °F 39.0 °F 36.0 °F 73% 30.36 in 10.0 mi East 9.2 mph - N/A   Clear